Location: Lecco
(45.8566°N, 9.3977°E)
Time: 08:15:13
(UTC+02:00)

A-11 Canister half - Pass Details

Date: 20 August 2020
Orbit: 1514 x 1686 km, 47.2° (Epoch: 21 September)

Event Time Altitude Azimuth Distance (km) Brightness Sun altitude
Rises 21:11:09 0° 288° (WNW) 4,771 13.7 -8.8°
Reaches altitude 10° 21:14:12 10° 287° (WNW) 3,807 12.6 -9.2°
Maximum altitude 21:23:55 76° 204° (SSW) 1,679 9.2 -10.7°
Enters shadow 21:32:46 14° 122° (ESE) 3,563 10.2 -12.0°
